7 * 24
多渠道服务支持
COSMOS 1521 是一颗俄罗斯 GLONASS 卫星,于 1985 年 12 月 20 日由联盟号火箭发射。它是 GLONASS 系统早期成员之一,旨在提供全球导航与定位服务。该卫星运行在中地球轨道,设计用于支持军事和民用应用。COSMOS 1521 最终退役并脱离轨道,目前可能已失效或成为太空垃圾。作为苏联时期 GLONASS 计划的一部分,它为俄罗斯建立独立的卫星导航系统奠定了基础。
| 数据来源 | 国际轨道数据 |
| 星历时间: | 2025-12-09T12:42:24+0800 6天前 查看轨道信息 |
| 半长轴: | 25449.533km |
| 偏心率: | 0.0062556 |
| 轨道倾角: | 66.383° |
| 近地点辐角 | 191.954° |
| 升交点赤经 | 331.065° |
| 平近点角 | 263.613° |
| 近地点: | 18912.195km |
| 远地点: | 19230.601km |
| 周期: | 673.410分钟 |
| 每日圈数: | 2.138371 |